Regional Weather Roundup
Issued by NWS

Home | Current Version | Previous Version | Graphics & Text | Print | Product List | Glossary On
Versions: 1 2 3 4 5 6 7 8 9 10 11 12 13 14 15 16 17 18 19 20 21 22 23 24 25 26 27 28 29 30 31 32 33 34 35 36 37 38 39 40 41 42 43 44 45 46 47 48 49
000
ASUS45 KSLC 272210
RWRUT

UTAH REGIONAL WEATHER ROUNDUP
NATIONAL WEATHER SERVICE SALT LAKE CITY UT
300 PM MST FRI FEB 27 2015

UTZ001>011-023>025-272300-

NORTHERN UTAH

CITY           SKY/WX    TMP DP  RH WIND       PRES   REMARKS
BRIGHAM CITY   PTSUNNY   43  24  48 SW7       29.73F
HILL AFB       CLOUDY    40  23  50 S9        29.71F WCI  34
LOGAN          LGT SNOW  36  28  73 CALM      29.73F
OGDEN          CLOUDY    41  25  53 NE7       29.71F
PROVO AIRPORT  PTSUNNY   43  28  56 SE7       29.74F
SALT LAKE CITY PTSUNNY   41  26  55 S9        29.72F
VERNAL         PTSUNNY   37  16  42 SW8       29.76F WCI  31
WENDOVER       CLOUDY    46  27  46 S5        29.68F
HEBER CITY     PTSUNNY   39  14  35 CALM      29.69F
WEST JORDAN    PTSUNNY   45  27  49 SW7       29.72F

$$

UTZ012>022-026-027-272300-

SOUTHERN/CENTRAL UTAH

CITY           SKY/WX    TMP DP  RH WIND       PRES   REMARKS
BLANDING       CLOUDY    32  27  82 SE3       29.84F
BRYCE CANYON   CLOUDY    30  22  72 SE10      29.70F WCI  21
CEDAR CITY     PTSUNNY   42  23  46 W6        29.67F
DELTA          MOSUNNY   47  15  27 N3        29.68F
HANKSVILLE     PTSUNNY   46  28  49 S15       29.74F
MILFORD        PTSUNNY   48  12  23 W9        29.66F
MOAB/CYNLANDS  MOSUNNY   47  20  34 CALM      29.71F
PRICE          PTSUNNY   40  16  37 VRB7      29.70F
ST GEORGE      MOCLDY    55  25  30 NW7       29.68F
KANAB          CLOUDY    43  30  61 S9        29.74F

$$

REGIONAL REPORTS     COLORADO/ARIZONA

CITY           SKY/WX    TMP DP  RH WIND       PRES   REMARKS
CRAIG, CO      SUNNY     34   7  32 NW5       29.76F WCI  30
GRAND JUNCTION PTSUNNY   43  24  47 SE9       29.74F
RIFLE          PTSUNNY   39  22  50 S13       29.73F WCI  31
MONTROSE       PTSUNNY   33  26  75 NW7       29.77F WCI  27
CORTEZ         LGT SNOW  32  29  88 SW3       29.78S FOG
PAGE, AZ       CLOUDY    43  34  70 NE8       29.73F
GRAND CANYON   CLOUDY    40  27  59 W8        29.73F WCI  34
KINGMAN        SUNNY     62  24  23 SW17      29.66F
FLAGSTAFF      LGT SNOW  38  25  59 SW23G31   29.74F WCI  27

$$

REGIONAL REPORTS    NEVADA/IDAHO/WYOMING

CITY           SKY/WX    TMP DP  RH WIND       PRES   REMARKS
LAS VEGAS, NV  MOSUNNY   63  21  20 S8        29.61F
ELY            CLOUDY    42  11  28 S3        29.63F
ELKO           CLOUDY    41  23  48 W8        29.64F
POCATELLO, ID  PTSUNNY   39  26  59 N7        29.74F WCI  34
BURLEY         MOSUNNY   44  29  55 NE12      29.69F
EVANSTON, WY   LGT SNOW  27  22  81 SW5       29.69F WCI  22
ROCK SPRINGS   PTSUNNY   29  11  47 VRB3      29.72F
KEMMERER       MOSUNNY   30  19  64 CALM      29.70F

$$


USA.gov is the U.S. government's official web portal to all federal, state and local government web resources and services.